Ross Barnett Reservoir Weather Center

Moon Phase Calendar



Ross Barnett Reservoir Water Level
Online Cameras

 


      

Current Conditions in Madison
5/19/2022 4:06:09 AM

72°F
Feels Like 73
Clear
Humidity
93%
Pressure
29.91"
Wind
6.9 mph (SW)
Dew Point
70°F
UV Index
0/10 (Low)
Visibility
6 mi

Hourly Forecast

Date & Time Thu, May 19
4:00 AM
Thu, May 19
5:00 AM
Thu, May 19
6:00 AM
Thu, May 19
7:00 AM
Thu, May 19
8:00 AM
Thu, May 19
9:00 AM
Thu, May 19
10:00 AM
Thu, May 19
11:00 AM
Thu, May 19
12:00 PM
Thu, May 19
1:00 PM
Thu, May 19
2:00 PM
Thu, May 19
3:00 PM
Thu, May 19
4:00 PM
Thu, May 19
5:00 PM
Thu, May 19
6:00 PM
Thu, May 19
7:00 PM
Thu, May 19
8:00 PM
Thu, May 19
9:00 PM
Thu, May 19
10:00 PM
Thu, May 19
11:00 PM
Fri, May 20
12:00 AM
Fri, May 20
1:00 AM
Fri, May 20
2:00 AM
Fri, May 20
3:00 AM
Fri, May 20
4:00 AM
Fri, May 20
5:00 AM
Fri, May 20
6:00 AM
Fri, May 20
7:00 AM
Fri, May 20
8:00 AM
Fri, May 20
9:00 AM
Fri, May 20
10:00 AM
Fri, May 20
11:00 AM
Fri, May 20
12:00 PM
Fri, May 20
1:00 PM
Fri, May 20
2:00 PM
Fri, May 20
3:00 PM
Fri, May 20
4:00 PM
Fri, May 20
5:00 PM
Fri, May 20
6:00 PM
Fri, May 20
7:00 PM
Fri, May 20
8:00 PM
Fri, May 20
9:00 PM
Fri, May 20
10:00 PM
Fri, May 20
11:00 PM
Sat, May 21
12:00 AM
Sat, May 21
1:00 AM
Sat, May 21
2:00 AM
Sat, May 21
3:00 AM
Condition
Clear

Clouds

Clouds

Clouds

Clouds

Clouds

Clouds

Clouds

Clouds

Clouds

Clear

Clear

Clear

Clear

Clear

Clear

Clear

Clear

Clear

Clear

Clear

Clear

Clear

Clear

Clear

Clear

Clear

Clear

Clouds

Clouds

Clouds

Clouds

Clouds

Clouds

Clear

Clear

Clear

Clear

Clear

Clear

Clouds

Clouds

Clouds

Clouds

Clouds

Clouds

Clear

Clear
Temperature 72°F71°F70°F70°F72°F76°F80°F83°F86°F88°F89°F90°F90°F89°F87°F82°F79°F77°F79°F78°F76°F74°F73°F71°F69°F68°F68°F69°F73°F77°F80°F83°F86°F88°F89°F90°F90°F89°F86°F82°F79°F81°F81°F78°F76°F74°F73°F72°F
Feels Like 73°F72°F71°F71°F73°F77°F83°F85°F87°F89°F90°F92°F93°F92°F90°F85°F79°F78°F79°F78°F76°F75°F73°F71°F70°F69°F69°F70°F74°F78°F82°F85°F87°F89°F90°F91°F93°F90°F89°F85°F79°F82°F82°F78°F76°F75°F74°F72°F
Cloudiness 0%13%28%46%77%96%88%68%55%46%4%2%1%1%1%1%0%0%1%2%3%3%1%0%0%0%1%5%31%29%21%20%19%17%9%5%3%2%2%3%100%100%97%73%59%49%0%0%
Visibility 6 mi6 mi6 mi6 mi6 mi6 mi6 mi6 mi6 mi6 mi6 mi6 mi6 mi6 mi6 mi6 mi6 mi6 mi6 mi6 mi6 mi6 mi6 mi6 mi6 mi6 mi6 mi6 mi6 mi6 mi6 mi6 mi6 mi6 mi6 mi6 mi6 mi6 mi6 mi6 mi6 mi6 mi6 mi6 mi6 mi6 mi6 mi6 mi
Precipitation 0%0%0%0%0%0%0%0%0%0%0%0%0%0%0%0%0%0%0%0%0%0%0%0%0%0%0%0%0%0%0%0%0%0%0%0%0%0%0%0%0%0%0%0%0%0%0%0%
Humidity 93%94%95%93%87%77%66%56%49%44%41%43%44%46%52%61%62%64%59%59%66%72%78%84%90%95%97%95%86%74%63%54%49%44%42%40%43%45%52%61%57%55%57%63%70%74%79%86%
Dew Point 70°F69°F68°F68°F68°F69°F68°F66°F65°F63°F63°F64°F66°F66°F67°F67°F64°F64°F63°F63°F63°F64°F65°F66°F66°F66°F67°F67°F68°F68°F66°F65°F64°F63°F63°F63°F65°F64°F67°F67°F63°F63°F64°F64°F65°F65°F66°F67°F
Pressure 29.91"29.91"29.91"29.94"29.94"29.94"29.94"29.91"29.88"29.85"29.85"29.83"29.8"29.8"29.77"29.77"29.77"29.8"29.8"29.8"29.83"29.8"29.83"29.83"29.83"29.83"29.83"29.85"29.85"29.85"29.85"29.85"29.85"29.85"29.83"29.83"29.8"29.83"29.83"29.83"29.83"29.85"29.85"29.88"29.91"29.91"29.94"29.94"
Wind Speed 6.2 mph5.9 mph6 mph6.3 mph7.4 mph8.3 mph8.9 mph9.5 mph10.2 mph10.9 mph11.2 mph11.2 mph10.6 mph10.3 mph9.5 mph8.4 mph8.3 mph9.3 mph12.6 mph13.2 mph12 mph11.7 mph10.3 mph9.8 mph9.5 mph9.3 mph10.1 mph9.8 mph12.5 mph14.6 mph14.5 mph14.2 mph13.8 mph12.9 mph12.6 mph11.9 mph11.1 mph11.4 mph7.4 mph6.7 mph6.8 mph10.2 mph12.8 mph12.8 mph11 mph9.9 mph9.1 mph8.1 mph
Wind
Direction
210°
SSW
217°
SW
207°
SSW
207°
SSW
219°
SW
221°
SW
221°
SW
217°
SW
215°
SW
210°
SSW
215°
SW
213°
SSW
212°
SSW
209°
SSW
201°
SSW
188°
S
179°
S
174°
S
188°
S
187°
S
188°
S
193°
SSW
198°
SSW
193°
SSW
187°
S
181°
S
178°
S
182°
S
183°
S
188°
S
188°
S
192°
SSW
198°
SSW
196°
SSW
201°
SSW
201°
SSW
198°
SSW
191°
S
176°
S
143°
SE
146°
SE
166°
SSE
161°
SSE
161°
SSE
175°
S
172°
S
173°
S
177°
S

Daily Forecast

Date High Low Precip. Humidity
Today
May 19

Clouds
90 °F
70 °F
0%
49%
Friday
May 20

Clouds
90 °F
68 °F
0%
49%
Saturday
May 21

Rain
94 °F
70 °F
71%
43%
Sunday
May 22

Rain
84 °F
68 °F
100%
67%
Monday
May 23

Rain
84 °F
64 °F
100%
63%
Tuesday
May 24

Rain
86 °F
68 °F
97%
53%
Wednesday
May 25

Rain
89 °F
66 °F
92%
50%
Thursday
May 26

Rain
88 °F
68 °F
100%
54%
Friday
May 27

Rain
90 °F
68 °F
96%
52%
Saturday
May 28

Rain
87 °F
70 °F
96%
70%
Sunday
May 29

Clear
93 °F
71 °F
4%
52%
Monday
May 30

Clear
93 °F
72 °F
0%
47%
Tuesday
May 31

Clear
94 °F
72 °F
0%
48%
Wednesday
Jun 1

Clouds
94 °F
72 °F
0%
43%
Thursday
Jun 2

Clouds
93 °F
72 °F
0%
41%
Friday
Jun 3

Clouds
81 °F
73 °F
0%
75%

Temperature 8-14 Day Outlook



Precipitation 8-14 Day Outlook




Quick Links
Ross Barnett Reservoir News
Ross Barnett Reservoir Photos
Ross Barnett Reservoir Videos




About Us
Contact Us
Site Map
Search Site
Advertise With Us
   
RossBarnett.USLakes.info
THE ROSS BARNETT RESERVOIR WEBSITE

Copyright 2022, Lakes Online
Privacy    |    Legal